{"data":{"norad_id":64855,"epoch":"2026-09-20T14:24:09.016704Z","epoch_age_seconds":115570,"freshness":"FRESH","line1":"1 64855U 25152P   26263.60010436  .00011681  00000+0  36354-3 0  9992","line2":"2 64855  97.2807 114.0703 0002421  99.2274 260.9243 15.33446880 64830","mean_motion":15.3344688,"eccentricity":0.0002421,"inclination_deg":97.2807,"raan_deg":114.0703,"arg_perigee_deg":99.2274,"mean_anomaly_deg":260.9243,"bstar":0.00036354,"rev_number":6483,"period_min":93.906089528188,"perigee_km":463.8807273105,"apogee_km":467.19443454258,"semimajor_km":6843.6745809265,"source":"CELESTRAK","updated_at":"2026-09-21T09:00:35.451032Z"}}